Flag for U.S.A. Weather past 2 weeks in Simi Valley, California, U.S.A.

Now
74 °F

Sunny.


Feels Like: 76 °F
Forecast: 56 / 87 °F
Wind: 3 mph from Southeast

Location: Van Nuys Airport

Current Time: Apr 27, 2015 at 8:17:45 PM

Latest Report: Apr 27, 2015 at 7:51 PM


Visibility: N/A

Pressure: 29.89 "Hg

Humidity: 23%

Dew point: 34 °F

Location of Simi ValleyLocation

Historic Weather in Simi Valley — Graph

°F

Simi Valley temperature yesterday

Maximum temperature yesterday: 79 °F (at 2:51 PM)
Minimum temperature yesterday: 60 °F (at 5:51 AM)
Average temperature yesterday: 69 °F

Past Weeks' High & Low Weather Summary

 TemperatureHumidityPressure
High88 °F (Apr 27, 1:51 PM)93% (Apr 14, 3:04 AM)30.09 "Hg (Apr 14, 3:04 AM)
Low52 °F (Apr 17, 6:51 AM)7% (Apr 15, 3:51 PM)29.79 "Hg (Apr 20, 4:51 PM)
Average65 °F47%29.93 "Hg
* Reported Apr 12 6:51 PM — Apr 27 6:51 PM, Simi Valley, Weather by CustomWeather, © 2015

Note: Actual official high and low records may vary slightly from our data, if they occured in-between our weather recording intervals... More about our weather records

Advertising

Simi Valley weather history for previous 24 hours

 ConditionsComfort  
Time TempWeatherWind HumidityBarometerVisibility
6:51 PM
Mon, Apr 27
80 °FSunny.7 mph19%29.86 "Hg10 mi
5:51 PM83 °FSunny.8 mph17%29.85 "Hg10 mi
4:51 PM84 °FSunny.7 mph15%29.85 "Hg10 mi
3:51 PM84 °FSunny.13 mph16%29.86 "Hg10 mi
2:51 PM85 °FSunny.5 mph13%29.87 "Hg10 mi
1:51 PM88 °FSunny.18 mph8%29.88 "Hg10 mi
12:51 PM85 °FSunny.21 mph9%29.90 "HgN/A
11:51 AM84 °FSunny.25 mph10%29.92 "HgN/A
10:51 AM82 °FSunny.22 mph12%29.93 "HgN/A
9:51 AM81 °FSunny.16 mph13%29.93 "HgN/A
8:51 AM78 °FSunny.8 mph15%29.93 "HgN/A
7:51 AM72 °FSunny.No wind24%29.93 "HgN/A
6:51 AM70 °FClear.12 mph20%29.90 "Hg10 mi
5:51 AM67 °FClear.10 mph25%29.90 "Hg10 mi
4:51 AM58 °FClear.No wind56%29.90 "Hg10 mi
3:51 AM57 °FClear.No wind64%29.90 "Hg10 mi
2:51 AM58 °FClear.No wind67%29.90 "Hg10 mi
1:51 AM58 °FClear.5 mph65%29.90 "Hg10 mi
12:51 AM62 °FClear.No wind56%29.92 "Hg10 mi
11:51 PM
Sun, Apr 26
63 °FClear.3 mph54%29.91 "Hg10 mi
10:51 PM68 °FClear.6 mph28%29.89 "Hg10 mi
9:51 PM69 °FPassing clouds.9 mph27%29.90 "Hg10 mi
8:51 PM70 °FClear.8 mph27%29.89 "Hg10 mi
Weather by CustomWeather, © 2015

See weather overviewHow to use our weather pages